Location: Unspecified
(0.0000°N, 0.0000°E)
Time: 05:49:54
(UTC+00:00)

Altair - Pass Details

Date: 23 May 2026
Orbit: 1501 x 1682 km, 47.2° (Epoch: 8 June)

Event Time Altitude Azimuth Distance (km) Brightness Sun altitude
Exits shadow 01:36:42 13° 3° (N) 3,577 9.6 -58.1°
Drops below altitude 10° 01:37:41 10° 7° (N) 3,811 9.8 -57.9°
Sets 01:41:30 0° 19° (NNE) 4,824 10.5 -57.2°
